map of BCN home
BCN - Airport
Location
City:  Barcelona, Catalonia, Spain
Near (Alt.):El Prat del Llobregat
Name:El Prat
Old (Alt.):Barcelona International Airport
ICAO:LEBL
IATA:BCN

Details
Type:Airport (Aerodrome, Airfield)
Use:Public/Civil, International (customs port of entry)
Latitude:4117'49"N (41.297078)
Longitude:204'42"E (2.078464)
Datum:WGS 1984
Elevation:12 ft (4 m)
Variation:1.13E (WMM2015v2 magnetic declination)
0.15 annual change
Runways:3
Longest:11654 × 148 ft (3552 × 45 m), paved

Time
Time Zone:UTC+1 (DST+2)
Local Time:

Weather
METAR:LEBL 041400Z 20008KT 160V220 CAVOK 11/M02 Q1025 NOSIG
TAF:LEBL 041100Z 0412/0512 22008KT 9999 FEW030 TX13/0412Z TN05/0506Z
BECMG 0417/0419 34007KT

Related Locations
Nearby:
Farthest:CHT: 12243 mi / 19703 km
Waitangi [Tuuta], CIT, NZ

Find:

   beyond  
but within

Other Information
Maps:
NOTAMs:
Links:
Sources:

  
  • flag of Spain
  • flag of Catalonia
  

Sectional Chart

Flight Planning
at skyvector.com

Satellite Image

Google Maps Satellite view

 

Copyright © 2004-2019 Karl L. Swartz. All rights reserved.
The Great Circle Mapper name and logo are trademarks of the Great Circle Mapper.
All other trademarks mentioned herein belong to their respective owners.
Please see credits for attibutions and further copyright information.

  Follow gcmap on Facebook Follow gcmap on Twitter GCmap on LinkedIn

hCard Microformat

Geo Microformat